Weather History for Pittsfield, MA

Change the Weather History Date:

Sunday, August 3, 2014

  Actual Average Record
Temperature  
Mean Temperature 66 °F 68 °F  
Max Temperature 77 °F 79 °F 91 °F (1930)
Min Temperature 55 °F 57 °F 41 °F (1927)
Degree Days  
Heating Degree Days 0 1  
Month to date heating degree days 0 3  
Since 1 June heating degree days 76 135  
Since 1 July heating degree days 18 34  
Cooling Degree Days 1 4  
Month to date cooling degree days 5 12  
Year to date cooling degree days 168 189  
Since 1 June cooling degree days 162 176  
Growing Degree Days 16 (Base 50)    
Moisture  
Dew Point 59 °F    
Average Humidity 75    
Maximum Humidity 100    
Minimum Humidity 50    
Precipitation  
Precipitation 0.00 in 0.15 in 3.26 in (1943)
Month to date precipitation 0.02 0.45  
Year to date precipitation 28.60 26.14  
Sea Level Pressure  
Sea Level Pressure 30.08 in    
Wind  
Wind Speed 2 mph (ENE)    
Max Wind Speed 10 mph    
Max Gust Speed 15 mph    
Visibility 5 miles    
Events Fog    
T = Trace of Precipitation, MM = Missing Value Source: NWS Daily Summary

Daily Weather History Graph

Daily Weather History Graph

Search for Another Location

Airport:

Trip Planner

Search our weather history database for the weather conditions in past years. The results will help you decide how hot, cold, wet, or windy it might be!

Date:

Astronomy

Aug. 03, 2014 Rise Set
Actual Time 5:47 AM EDT 8:10 PM EDT
Civil Twilight 5:15 AM EDT 8:41 PM EDT
Nautical Twilight 4:36 AM EDT 9:21 PM EDT
Astronomical Twilight 3:52 AM EDT 10:04 PM EDT
Moon 1:15 PM EDT (8/3) 11:54 PM EDT (8/3)
Length of Visible Light 15h 26m
Length of Day
14h 22m
Waxing Crescent, 46% of the Moon is Illuminated
Aug 3
Waxing Crescent
Aug 3
First Quarter
Aug 10
Full
Aug 17
Last Quarter
Aug 25
New

Hourly Weather History & Observations

Time (EDT) Temp. Dew Point Humidity Pressure Visibility Wind Dir Wind Speed Gust Speed Precip Events Conditions
12:54 AM 57.9 °F 57.0 °F 97% 30.08 in 7.0 mi Calm Calm - N/A   Clear
1:54 AM 55.0 °F 55.0 °F 100% 30.07 in 5.0 mi Calm Calm - N/A   Clear
2:54 AM 55.9 °F 55.9 °F 100% 30.07 in 5.0 mi Calm Calm - N/A   Scattered Clouds
2:59 AM 55.0 °F 55.0 °F 100% 30.12 in 2.5 mi Calm Calm - N/A   Mostly Cloudy
3:13 AM 57.0 °F 55.9 °F 96% 30.13 in 5.0 mi Calm Calm - N/A   Overcast
4:15 AM 57.0 °F 57.0 °F 100% 30.14 in 0.2 mi Calm Calm - N/A Fog Fog
4:54 AM 57.9 °F 57.9 °F 100% 30.08 in 0.2 mi Calm Calm - N/A Fog Fog
5:08 AM 57.9 °F 57.9 °F 100% 30.14 in 0.5 mi Calm Calm - N/A Fog Fog
5:36 AM 57.9 °F 57.0 °F 97% 30.14 in 0.2 mi Calm Calm - N/A Fog Fog
5:54 AM 57.9 °F 57.9 °F 100% 30.08 in 0.2 mi Calm Calm - N/A Fog Fog
6:54 AM 57.9 °F 57.9 °F 100% 30.09 in 0.2 mi ENE 4.6 mph - N/A Fog Fog
7:20 AM 57.9 °F 57.9 °F 100% 30.14 in 0.5 mi NNE 4.6 mph - N/A Fog Fog
7:30 AM 57.9 °F 57.9 °F 100% 30.14 in 0.2 mi NE 3.5 mph - N/A Fog Fog
7:37 AM 57.9 °F 57.9 °F 100% 30.14 in 0.5 mi NE 3.5 mph - N/A Fog Fog
7:54 AM 59.0 °F 59.0 °F 100% 30.09 in 1.2 mi Calm Calm - N/A   Overcast
8:09 AM 59.0 °F 57.9 °F 96% 30.15 in 0.5 mi Calm Calm - N/A Fog Fog
8:38 AM 59.0 °F 59.0 °F 100% 30.15 in 1.2 mi Calm Calm - N/A   Overcast
8:47 AM 59.0 °F 59.0 °F 100% 30.15 in 0.5 mi Calm Calm - N/A Fog Fog
8:54 AM 59.0 °F 59.0 °F 100% 30.10 in 0.8 mi Calm Calm - N/A   Overcast
9:04 AM 60.1 °F 59.0 °F 96% 30.14 in 1.8 mi Calm Calm - N/A   Overcast
9:23 AM 60.1 °F 60.1 °F 100% 30.13 in 3.0 mi Calm Calm - N/A   Overcast
9:54 AM 62.1 °F 61.0 °F 96% 30.08 in 6.0 mi Calm Calm - N/A   Mostly Cloudy
10:05 AM 62.1 °F 61.0 °F 96% 30.13 in 8.0 mi Calm Calm - N/A   Scattered Clouds
10:54 AM 68.0 °F 60.1 °F 76% 30.08 in 10.0 mi Calm Calm - N/A   Clear
11:54 AM 72.0 °F 61.0 °F 68% 30.05 in 10.0 mi North 3.5 mph - N/A   Clear
12:54 PM 73.0 °F 61.0 °F 66% 30.06 in 10.0 mi Calm Calm - N/A   Mostly Cloudy
1:54 PM 73.9 °F 60.1 °F 62% 30.04 in 10.0 mi SSE 5.8 mph - N/A   Scattered Clouds
2:54 PM 77.0 °F 59.0 °F 54% 30.01 in 10.0 mi Variable 6.9 mph - N/A   Scattered Clouds
3:54 PM 75.9 °F 57.0 °F 52% 30.00 in 10.0 mi ESE 6.9 mph - N/A   Clear
4:54 PM 75.0 °F 55.0 °F 50% 29.99 in 10.0 mi Variable 5.8 mph - N/A   Clear
5:54 PM 73.0 °F 55.9 °F 55% 29.99 in 10.0 mi East 4.6 mph - N/A   Clear
6:54 PM 72.0 °F 61.0 °F 68% 29.99 in 10.0 mi SE 3.5 mph - N/A   Clear
7:54 PM 69.1 °F 61.0 °F 75% 30.00 in 10.0 mi Calm Calm - N/A   Clear
8:54 PM 66.9 °F 62.1 °F 84% 30.02 in 10.0 mi Calm Calm - N/A   Scattered Clouds
9:01 PM 68.0 °F 62.1 °F 81% 30.08 in 10.0 mi Calm Calm - N/A   Mostly Cloudy
10:14 PM 64.9 °F 62.1 °F 90% 30.08 in 10.0 mi NNW 3.5 mph - N/A   Mostly Cloudy
10:54 PM 64.0 °F 62.1 °F 93% 30.01 in 10.0 mi WNW 3.5 mph - N/A   Scattered Clouds
11:01 PM 63.0 °F 61.0 °F 93% 30.07 in 10.0 mi Calm Calm - N/A   Mostly Cloudy
11:10 PM 63.0 °F 61.0 °F 93% 30.06 in 10.0 mi Calm Calm - N/A   Scattered Clouds
11:54 PM 61.0 °F 60.1 °F 97% 30.00 in 6.0 mi Calm Calm - N/A   Clear